DMSP 5D-2 F11 DEB, 28330

Orbit data source: Space-Track

DMSP 5D-2 F11 DEB, 28330 is space debris in SSO originally from a launch on Thu, 28 Nov 1991 UTC launched from the Air Force Western Test Range (AFWTR). Debris objects in space refer to the collection of defunct objects orbiting the Earth. Examples of debris include non-operational satellites, rocket bodies, and fragments generated from explosions, collisions, or faulty payload assembly.

Loading next visibility...
Identifier
28330, 1991-082AT
Orbit
SSO
Country
Flag of USUS
Related business
Manufacturer
Unknown
Mission
Spacecraft
Bus & Motor
Unknown
Mass
Unknown
Launch date (UTC)
1991-11-28 (34 years ago)
Launch vehicle
Unknown
Launch site
Air Force Western Test Range (AFWTR)
Object type
Payload
Rocket body
Debris
Shape & HBR
Unknown shape, 0.1 m
Radar Cross Section
Small (<0.1 m²)

Expand to show TLE details & history
Last TLE update: 8 hours ago

TLE from 8 hours ago
0 DMSP 5D-2 F11 DEB
1 28330U 91082AT  26121.43125156  .00006077  00000-0  19440-2 0  9995
2 28330  98.9313 197.7013 0067980 266.0890  93.2523 14.38655180133620
Epoch: 2026-05-01T10:21Z
TLE epoch observation values (Epoch: 2026-05-01T10:21:00.134Z)
Latitude
0.00002°
Longitude
-176.91287°
Altitude
768.961 km
Speed
7.468 km/s
True Right ascension
13h 10m 48s
True Declination
0° 00' 00"
Sunlit
Object was in full shadow at epoch
Visualization orbit readout
Latitude
Unknown
Longitude
Unknown
Altitude
Unknown
Speed
Unknown
Apparent Right ascension
Unknown
Apparent Declination
Unknown
Sunlit
N/A
Visualization observer readout
Local Sidereal Time
02:24:02
Azimuth
Unknown
Elevation
Unknown
Doppler factor
Unknown
Orbital elements
Apogee altitude
808.615 km
Perigee altitude
711.564 km
Semi-major axis
7,138.227 km
Eccentricity
0.0068
Inclination
98.9313°
RAAN
197.7013°
Arg. of periapsis
266.089°
True anomaly
94.02964°
Mean anomaly
93.2523°
Eccentric anomaly
93.64101°
Mean motion
3.5988 °/min
Orbital period
100.03 mins
BSTAR
0.001944

Documentation

Showing up to 5 results
|